Probability
0 0 0 0 0 0 0 0 0 0 0 0 0 0 0 0 0 0 2 4 7 10 16 27 36 42 52 60 65 69 71 69 67 65 63 62 60 57 53 47 38 29 24 21 16 11 5 1 0
0 0 0 0 0 0 0 0 0 0 0 0 0 0 0 0 0 0 2 5 8 11 17 25 34 41 49 56 61 68 72 70 68 66 65 62 59 57 54 49 40 30 24 22 18 12 7 2 0
0 0 0 0 0 0 0 0 0 0 0 0 0 0 0 0 0 0 3 7 10 13 17 23 31 38 46 52 57 65 71 72 70 69 66 62 59 57 55 52 45 34 26 24 21 15 9 4 1
0 0 0 0 0 0 0 0 0 0 0 0 0 0 0 0 0 1 5 10 12 14 17 22 29 37 43 49 55 62 69 72 73 72 68 64 60 57 55 55 50 38 28 25 22 17 10 4 3
0 0 0 0 0 0 0 0 0 0 0 0 0 0 0 0 0 3 9 13 14 15 18 23 29 37 43 48 54 60 64 68 72 73 70 67 62 58 56 55 51 40 30 26 23 17 10 5 3
0 0 0 0 0 0 0 0 0 0 0 0 0 0 0 0 0 4 11 14 15 17 20 25 30 37 43 48 54 58 59 63 69 71 69 67 64 60 57 54 49 39 31 27 23 15 9 5 3
0 0 0 0 0 0 0 0 0 0 0 0 0 0 0 0 0 4 10 14 16 20 22 26 31 38 42 48 54 55 54 57 62 66 66 64 62 60 57 53 47 38 31 27 21 14 8 4 3
0 0 0 0 0 0 0 0 0 0 0 0 0 0 0 0 0 3 10 15 18 21 23 26 30 37 42 46 50 50 51 53 54 57 59 60 58 56 52 49 43 35 31 26 19 12 7 4 3
0 0 0 0 0 0 0 0 0 0 0 0 0 0 0 0 1 4 10 16 18 19 22 25 27 32 38 42 44 46 48 48 47 46 48 52 51 47 44 41 37 33 30 25 17 11 7 4 2
0 0 0 0 0 0 0 0 0 0 0 0 0 0 0 1 2 4 9 14 16 17 21 23 25 28 31 35 38 41 43 44 42 38 37 41 42 39 36 33 32 30 26 21 15 9 6 3 1
0 0 0 0 0 0 0 0 0 0 0 0 0 0 0 1 2 4 6 10 13 16 19 22 23 25 27 29 32 34 38 40 37 32 30 32 34 32 29 28 28 25 21 16 11 7 5 2 0
0 0 0 0 0 0 0 0 0 0 0 0 0 0 0 1 1 2 3 7 11 15 18 20 22 22 23 25 27 29 33 36 33 28 25 25 27 25 24 25 25 21 17 12 8 5 3 1 0
0 0 0 0 0 0 0 0 0 0 0 0 0 0 0 0 0 1 2 6 10 13 16 19 20 20 19 21 23 25 29 31 28 24 21 20 20 20 20 21 20 16 14 11 7 4 2 0 0
0 0 0 0 0 0 0 0 0 0 0 0 0 0 0 0 0 1 3 6 9 11 14 17 18 18 17 19 20 21 25 26 22 19 17 15 15 17 18 17 14 11 10 9 6 3 2 0 0
0 0 0 0 0 0 0 0 0 0 0 0 0 0 0 0 0 1 3 6 8 9 12 15 16 16 17 18 17 18 20 21 18 15 13 11 11 13 15 14 11 7 6 6 4 3 2 0 0
0 0 0 0 0 0 0 0 0 0 0 0 0 0 0 0 0 1 3 5 6 7 10 13 14 14 16 17 16 15 15 15 14 13 11 7 7 10 12 12 8 4 3 3 3 3 2 0 0
0 0 0 0 0 0 0 0 0 0 0 0 0 0 0 0 0 0 1 2 3 5 8 11 12 13 14 15 15 13 12 10 11 11 9 5 4 7 10 10 6 2 1 2 3 2 1 0 0
0 0 0 0 0 0 0 0 0 0 0 0 0 0 0 0 0 0 0 0 0 2 6 9 11 12 12 13 13 12 10 8 8 9 7 3 1 4 7 7 3 0 0 1 1 1 1 0 0
0 0 0 0 0 0 0 0 0 0 0 0 0 0 0 0 0 0 0 0 0 1 4 7 9 10 10 11 11 9 8 7 7 7 5 2 0 2 4 4 1 0 0 0 0 0 0 0 0
0 0 0 0 0 0 0 0 0 0 0 0 0 0 0 0 0 0 0 0 0 1 4 7 8 8 9 10 9 6 6 6 6 5 3 1 0 1 2 2 1 0 1 1 1 0 0 0 0
0 0 0 0 0 0 0 0 0 0 0 0 0 0 0 0 0 0 0 0 0 1 3 7 8 8 8 9 8 6 4 4 4 3 1 0 0 0 1 1 0 1 2 2 1 0 0 0 0
0 0 0 0 0 0 0 0 0 0 0 0 0 0 0 0 0 0 0 0 0 1 2 5 8 8 8 8 8 5 3 2 3 2 1 0 0 0 0 0 0 1 3 3 2 0 0 0 0
0 0 0 0 0 0 0 0 0 0 0 0 0 0 0 0 0 0 0 0 0 0 1 3 6 8 7 7 7 4 1 1 2 2 1 0 0 0 0 0 1 2 2 2 2 1 0 0 0
0 0 0 0 0 0 0 0 0 0 0 0 0 0 0 0 0 0 0 0 0 0 0 2 4 6 7 6 5 3 1 0 1 1 0 0 0 1 1 1 2 3 2 2 2 1 0 0 0
0 0 0 0 0 0 0 0 0 0 0 0 0 0 0 0 0 0 0 0 0 0 0 0 2 5 6 5 4 1 0 0 0 0 0 0 0 1 1 1 2 3 2 2 2 1 0 0 0
0 0 0 0 0 0 0 0 0 0 0 0 0 0 0 0 0 0 0 0 0 0 0 0 1 2 3 4 3 1 0 0 0 0 0 0 0 0 1 2 2 2 2 1 1 0 0 0 0
0 0 0 0 0 0 0 0 0 0 0 0 0 0 0 0 0 0 0 0 0 0 0 0 0 1 1 2 2 1 0 0 0 0 0 0 0 0 1 1 1 1 1 0 0 0 0 0 0
0 0 0 0 0 0 0 0 0 0 0 0 0 0 0 0 0 0 0 0 0 0 0 0 0 0 0 1 2 1 1 1 0 0 0 0 0 0 0 0 0 0 0 0 0 0 0 0 0
0 0 0 0 0 0 0 0 0 0 0 0 0 0 0 0 0 0 0 0 0 0 0 0 0 0 0 0 1 2 1 0 0 0 0 0 0 0 0 0 0 0 0 0 0 0 0 0 0
0 0 0 0 0 0 0 0 0 0 0 0 0 0 0 0 0 0 0 0 0 0 0 0 0 0 0 1 2 2 1 0 0 0 0 0 0 0 0 0 0 0 0 0 0 0 0 0 0
Wind_Speed
10 6 2 4 4 1 6 7 4 3 3 3 2 1 2 3 3 3 2 3 3 7 9 11 12 13 14 15 16 16 16 17 17 17 18 18 19 19 19 19 18 18 17 17 17 17 17 16 16
4 3 4 4 3 4 7 6 7 7 5 5 4 2 2 3 1 2 3 4 3 5 7 9 11 12 13 14 15 16 16 16 17 17 17 18 19 19 19 19 18 18 17 17 17 16 16 16 15
5 1 3 3 4 8 6 3 3 5 5 4 4 4 2 3 2 1 3 2 3 3 5 8 11 12 13 13 14 16 17 17 17 17 18 18 19 19 19 18 18 17 17 17 17 16 16 16 15
3 4 3 1 9 7 4 4 4 6 6 5 4 6 4 3 2 2 4 4 3 1 3 6 10 12 13 13 13 14 16 17 17 18 18 19 19 19 18 18 17 17 17 17 17 16 16 16 15
4 3 1 4 8 5 4 6 6 6 6 6 6 6 7 4 3 4 5 5 3 2 1 5 9 11 12 13 13 14 15 16 17 18 19 19 19 18 18 17 17 18 18 18 17 17 16 15 14
4 3 2 6 7 4 3 4 4 5 6 7 6 7 7 4 8 7 5 4 2 2 1 2 8 9 10 11 13 14 14 15 17 18 19 19 20 19 19 18 18 18 19 18 18 17 17 15 15
3 2 4 5 4 4 4 5 2 4 7 6 5 6 8 7 9 10 6 4 3 2 1 1 3 6 8 9 10 13 14 14 15 17 18 18 19 20 20 19 19 19 19 19 18 18 17 16 15
3 2 2 3 4 4 3 4 3 5 8 5 3 4 7 12 15 13 9 5 3 2 2 2 2 3 5 7 9 10 12 13 13 15 16 16 18 19 20 19 19 19 19 19 19 18 17 16 14
3 2 4 4 3 5 5 7 7 7 6 7 5 7 10 12 13 13 12 8 6 6 3 2 3 3 3 5 8 9 10 11 12 11 14 14 10 11 13 15 18 20 20 19 19 18 17 14 12
3 3 6 4 3 5 7 8 9 7 10 10 11 11 10 9 10 11 11 10 7 8 6 3 4 4 4 4 5 6 6 7 8 7 9 8 7 8 10 15 17 19 19 19 19 18 16 10 5
1 4 4 5 5 7 9 10 7 7 11 11 13 14 12 12 13 12 11 10 9 7 8 6 4 5 5 3 4 4 4 5 6 8 8 7 7 6 7 7 10 11 13 10 12 11 6 6 5
2 5 5 6 6 7 9 9 8 10 14 12 13 14 12 13 14 13 12 11 9 9 8 7 6 4 5 4 4 4 4 5 5 7 9 7 6 7 7 6 7 7 6 8 7 6 7 6 6
3 5 6 8 9 10 11 11 12 14 15 13 14 14 14 13 13 12 12 11 9 9 9 7 6 5 4 4 4 4 5 6 7 7 8 9 7 8 8 7 7 7 7 8 8 7 8 7 6
4 6 9 10 11 8 9 13 9 12 11 11 12 13 12 12 12 12 11 11 9 9 9 7 7 7 5 5 5 4 5 6 6 7 8 10 8 9 9 8 8 8 8 9 9 9 8 6 6
4 6 9 7 6 5 7 10 7 11 10 11 11 11 12 10 9 10 11 11 10 10 9 9 8 7 7 7 7 5 5 6 7 7 9 10 9 11 10 10 9 9 9 9 8 8 7 6 6
3 3 6 6 5 5 4 12 10 9 9 11 10 10 11 11 9 10 10 10 10 9 9 9 8 7 7 7 7 5 5 6 7 7 8 10 11 12 11 10 10 10 9 9 9 9 7 7 6
3 4 7 9 4 4 4 13 13 10 9 10 10 10 10 11 10 9 9 9 9 8 8 8 8 8 8 8 7 6 6 7 7 7 8 10 11 13 12 10 10 11 9 8 9 8 8 8 7
5 6 7 9 7 7 10 15 17 12 8 9 9 9 10 11 11 10 10 9 8 7 7 7 7 8 7 6 5 5 6 7 6 7 9 11 10 13 12 10 12 12 9 9 9 10 8 7 7
5 6 12 12 10 9 12 16 15 11 7 7 8 8 9 11 10 8 8 9 8 6 7 6 6 7 6 5 5 6 6 6 7 7 10 12 12 13 13 11 12 12 11 11 12 9 10 7 7
5 8 10 12 7 10 12 15 10 8 5 5 7 9 9 11 11 10 10 9 7 6 7 7 7 7 7 6 5 5 6 6 7 7 10 13 13 14 13 13 12 13 11 12 12 10 8 6 7
7 7 8 12 13 6 7 9 5 6 4 5 6 7 8 9 10 11 10 10 8 7 7 7 7 8 8 6 5 4 4 4 5 7 8 11 13 14 14 15 13 13 13 13 14 13 11 10 7
8 7 9 11 8 6 3 8 7 7 7 7 7 8 9 9 8 9 9 10 10 9 8 8 7 8 7 5 5 6 6 7 7 6 7 10 13 15 15 15 15 14 12 13 14 13 10 12 10
7 7 9 9 5 5 3 4 10 5 7 9 8 8 9 8 8 9 9 9 9 9 9 8 8 7 6 5 6 7 6 6 5 6 9 11 11 14 15 15 14 15 12 14 14 13 13 11 10
4 5 5 3 3 3 4 3 9 4 6 8 8 8 9 8 8 8 8 9 9 9 9 8 8 7 5 5 6 6 7 6 6 7 9 9 9 10 13 14 14 14 13 14 14 14 15 12 10
4 5 6 8 5 7 4 4 10 6 5 5 7 8 8 8 8 9 10 10 10 11 11 10 9 8 6 5 5 6 7 7 7 7 9 9 8 8 13 13 13 13 13 13 13 14 14 14 13
1 4 3 3 6 7 5 7 9 6 5 6 6 6 7 8 8 9 9 9 9 10 11 10 10 9 8 6 6 5 6 5 6 7 8 9 9 9 13 13 14 14 14 14 13 12 13 12 12
1 2 4 3 4 6 8 8 9 5 6 6 6 6 7 8 8 9 10 10 10 10 10 9 9 10 9 8 6 6 6 6 7 8 8 8 8 9 13 13 14 14 14 14 14 11 13 12 12
4 4 3 2 3 7 9 7 7 7 7 7 7 7 8 9 9 9 9 10 10 9 10 9 9 9 9 8 5 4 4 6 6 6 7 8 9 9 13 13 14 15 14 14 14 11 12 13 11
2 2 3 3 4 4 8 10 6 7 7 7 8 8 8 9 9 9 9 9 9 9 9 10 10 10 9 8 6 5 5 5 6 6 7 6 7 8 12 13 14 14 15 14 14 12 14 14 12
5 6 6 4 6 5 6 13 6 7 7 7 8 9 9 9 9 8 9 9 9 10 10 10 9 9 9 9 7 5 5 4 4 4 5 4 5 7 9 11 13 14 14 15 15 15 14 15 15
Wind_Direction
336 333 16 56 64 84 238 239 241 276 264 242 243 181 182 207 195 204 276 22 102 149 167 174 175 174 171 169 165 162 162 161 160 158 155 153 151 150 148 147 147 145 143 140 137 133 130 127 125
334 339 50 69 124 208 247 235 233 247 265 310 315 307 301 262 228 86 10 348 106 148 165 174 179 176 175 172 170 167 166 166 165 163 160 158 156 155 153 152 150 148 145 141 137 135 133 131 130
333 23 84 107 189 206 220 227 241 280 301 318 315 312 297 304 13 36 320 13 87 133 169 178 181 182 179 177 174 173 171 170 169 168 165 163 161 159 157 155 153 150 146 142 139 138 136 135 134
34 44 58 180 231 233 241 299 324 322 329 339 336 312 312 329 4 319 354 40 61 94 184 188 186 186 186 182 179 177 177 175 174 173 171 168 165 164 161 157 154 151 148 145 143 142 141 140 138
57 78 112 239 245 256 281 308 326 327 322 333 348 314 298 306 358 10 20 27 29 1 219 201 194 192 189 189 186 183 182 181 179 177 175 173 169 166 162 159 156 153 151 149 147 146 145 143 142
53 72 165 237 250 270 305 320 318 318 314 323 339 314 283 306 1 352 354 358 13 11 324 214 206 201 197 195 192 189 187 187 185 181 179 177 172 168 165 162 160 158 156 153 152 151 149 147 144
99 112 213 245 270 284 307 330 350 312 308 302 316 304 287 312 338 332 329 338 347 2 7 288 218 210 203 201 201 198 194 191 190 186 181 178 175 173 170 166 163 162 159 157 155 154 152 150 147
123 110 241 256 263 266 315 332 313 308 291 293 307 288 288 304 321 324 320 321 324 324 305 297 266 237 217 205 203 201 199 196 192 189 184 178 177 176 172 168 167 165 163 160 158 157 156 153 150
92 111 235 248 267 279 325 324 309 296 282 286 270 258 268 292 313 320 317 316 316 312 296 271 275 257 242 226 214 200 197 196 193 187 183 176 178 177 173 170 169 168 165 163 161 160 158 153 150
107 192 235 249 274 290 304 303 306 311 302 293 293 290 288 295 307 309 305 300 297 294 288 266 254 251 243 236 218 207 200 193 192 185 182 181 176 176 173 171 170 169 166 165 164 162 158 148 143
176 219 266 285 289 293 295 294 287 282 281 278 284 293 297 298 299 296 289 282 272 263 270 265 252 246 236 236 222 211 201 193 191 185 181 180 174 170 170 170 169 168 165 163 163 158 153 151 149
297 271 277 284 295 296 288 287 280 258 261 269 276 283 285 285 284 283 284 281 277 270 265 268 261 251 242 232 233 218 202 197 191 188 182 176 176 173 173 174 171 169 167 162 159 157 157 158 159
281 284 291 289 294 285 282 273 273 268 269 276 280 283 280 275 276 277 279 276 272 269 265 260 262 254 248 237 234 235 209 201 194 188 187 182 180 177 176 176 174 173 168 166 162 163 163 165 166
270 287 294 291 288 283 278 279 271 269 276 282 283 283 281 278 277 285 291 284 279 272 268 256 253 251 244 238 229 228 218 205 198 192 193 189 185 180 177 176 178 176 174 171 168 168 168 169 167
300 306 304 282 280 276 293 288 255 272 291 290 287 287 289 286 285 282 283 283 278 273 270 256 246 242 239 234 227 225 220 208 202 196 193 192 191 185 181 178 180 179 176 172 167 167 162 164 166
339 338 307 288 292 293 311 284 281 290 300 294 294 293 291 291 290 286 286 287 284 278 275 267 252 246 240 236 228 218 219 214 208 198 194 193 196 192 182 182 181 178 173 175 171 168 165 168 166
1 313 286 298 286 299 289 279 290 302 298 293 295 296 298 301 302 298 292 289 288 281 277 276 255 242 240 235 230 221 219 214 209 200 197 195 198 196 185 185 181 176 174 176 176 171 167 165 165
285 287 283 289 290 298 285 279 292 303 300 296 297 300 302 304 300 300 303 297 290 286 279 276 272 251 241 234 230 227 227 216 209 205 200 197 198 199 187 186 183 176 174 176 176 170 167 163 161
259 272 282 282 288 297 280 286 294 301 309 307 309 311 309 305 303 310 308 307 301 302 299 287 279 264 242 228 220 220 227 220 213 209 205 200 198 200 190 187 184 179 179 180 172 166 164 161 152
277 284 283 292 297 299 286 286 286 288 291 297 306 312 315 320 327 325 326 328 315 305 308 296 277 271 252 230 223 218 225 226 213 211 210 203 198 200 196 184 188 182 177 177 176 167 160 164 162
285 262 272 289 312 303 306 297 286 302 307 320 316 308 312 323 324 322 328 329 325 321 313 299 283 274 260 244 227 227 231 235 217 211 212 205 200 201 196 186 187 184 180 181 181 175 164 166 170
281 258 275 291 311 298 340 300 294 300 317 325 321 321 320 318 322 325 335 336 330 323 318 307 288 279 267 248 225 219 228 232 228 218 216 206 204 199 195 189 188 187 183 181 183 177 169 165 171
254 283 286 285 268 285 277 251 288 317 312 313 314 315 318 322 325 327 336 329 326 325 324 315 301 283 268 248 233 225 231 241 236 223 218 210 205 196 194 191 190 187 184 183 184 177 172 173 173
296 329 321 6 58 295 256 225 285 284 285 305 313 317 319 325 326 328 332 329 331 334 329 322 316 298 276 256 239 233 231 234 233 228 217 206 201 194 194 193 191 187 184 184 185 182 177 176 174
34 37 2 354 357 266 285 258 257 262 274 286 303 311 319 325 332 330 331 331 333 335 331 325 320 309 292 264 249 239 239 230 226 231 219 211 201 196 194 195 191 186 186 184 183 182 181 178 178
270 125 145 260 271 291 300 256 258 263 283 293 297 308 322 329 330 330 326 324 327 327 325 326 325 317 307 285 264 249 246 235 231 228 219 215 206 200 195 192 191 189 186 182 182 182 182 180 182
160 201 185 183 278 280 271 277 292 284 303 304 308 319 319 322 325 327 328 328 326 324 320 317 322 323 315 301 279 259 246 246 238 224 217 215 206 199 194 190 191 189 185 181 180 185 182 180 184
171 160 98 123 281 282 286 272 264 292 297 301 309 310 311 319 323 327 328 326 324 319 317 322 320 317 315 305 289 284 271 254 236 215 220 221 205 198 190 189 191 187 184 180 181 183 181 180 184
163 156 157 180 203 234 283 272 235 250 269 285 293 297 304 313 316 319 322 324 321 323 326 326 324 323 325 319 308 298 275 252 232 217 216 212 203 194 192 191 189 187 184 182 182 183 180 182 183
192 191 166 194 244 222 254 272 247 248 267 281 292 300 305 307 309 314 319 325 328 327 327 326 323 325 327 324 313 301 276 248 227 218 214 212 207 199 196 192 189 189 186 184 184 183 182 183 185